Date,TemperatureHighF,TemperatureAvgF,TemperatureLowF,DewpointHighF,DewpointAvgF,DewpointLowF,HumidityHigh,HumidityAvg,HumidityLow,PressureMaxIn,PressureMinIn,WindSpeedMaxMPH,WindSpeedAvgMPH,GustSpeedMaxMPH,PrecipitationSumIn
2013-1-1,37.8,31.9,25.3,36.5,30.5,23.6,95,95,93,30.27,30.03,9,1,0,0.01
2013-1-2,35.1,27.0,22.0,26.8,22.1,19.3,93,83,59,30.31,30.20,6,0,0,0.00
2013-1-3,43.0,30.0,19.7,30.9,23.9,17.5,93,80,52,30.47,30.29,6,0,0,0.00
2013-1-4,47.4,34.1,21.2,28.6,24.7,18.7,92,71,42,30.50,30.34,7,0,0,0.00
2013-1-5,42.7,37.0,28.5,35.2,30.4,22.5,89,77,71,30.34,30.18,11,1,0,0.00
2013-1-6,37.4,30.3,24.5,31.9,24.9,19.5,93,81,52,30.38,30.24,10,0,0,0.00
2013-1-7,51.9,36.8,23.0,31.0,25.4,19.4,89,66,40,30.37,30.12,12,1,0,0.00
2013-1-8,58.7,42.9,27.8,45.4,35.1,23.1,94,75,54,30.18,30.02,11,1,0,0.19
2013-1-9,53.7,49.5,45.6,47.8,44.3,38.9,96,83,61,30.34,30.18,14,1,0,0.05
2013-1-10,56.2,50.1,45.5,53.7,47.2,40.3,95,90,68,30.19,29.79,12,1,0,0.14
2013-1-11,65.9,55.0,45.4,47.7,45.8,43.2,93,73,47,29.86,29.70,16,3,0,0.00
2013-1-12,57.8,44.5,29.8,51.3,38.4,28.0,93,81,50,29.96,29.77,14,2,0,0.33
2013-1-13,29.7,23.6,14.8,27.9,20.2,12.1,93,87,77,30.40,29.96,13,2,0,0.00
2013-1-14,34.9,21.7,11.6,19.0,14.4,9.0,91,75,45,30.52,30.36,7,0,0,0.00
2013-1-15,34.4,24.7,15.4,23.2,17.5,12.5,90,75,51,30.37,30.19,6,0,0,0.00
2013-1-16,42.6,28.1,14.1,23.0,18.6,11.5,92,70,41,30.24,30.12,8,0,0,0.00
2013-1-17,47.7,35.2,25.9,33.8,26.9,18.8,86,72,50,30.50,30.21,10,1,0,0.00
2013-1-18,56.9,39.6,22.9,33.8,27.8,20.4,92,66,35,30.52,30.19,11,2,0,0.00
2013-1-19,62.3,49.0,38.7,39.1,33.6,27.6,80,56,40,30.19,30.04,14,3,0,0.00
2013-1-20,60.8,42.9,29.7,37.6,29.7,20.2,88,62,39,30.27,30.10,11,1,0,0.00
2013-1-21,39.2,28.4,21.0,21.1,16.7,14.5,76,62,41,30.41,30.26,7,1,0,0.00
2013-1-22,46.7,31.4,19.7,27.8,21.2,14.8,85,67,46,30.35,30.22,9,0,0,0.00
2013-1-23,61.3,41.8,26.4,44.9,33.9,21.8,92,75,52,30.27,30.13,8,1,0,0.00
2013-1-24,43.3,37.9,33.1,34.9,23.4,18.0,78,56,44,30.33,30.12,13,1,0,0.00
2013-1-25,50.7,37.7,30.5,35.6,30.6,27.2,93,77,51,30.26,30.12,6,0,0,0.00
2013-1-26,60.6,44.8,31.0,30.5,26.4,22.0,86,53,24,30.27,30.11,11,1,0,0.00
2013-1-27,59.4,53.6,46.5,55.3,47.4,31.0,89,80,53,30.11,29.89,16,3,0,0.00
2013-1-28,71.8,66.2,59.0,61.9,60.2,55.5,89,81,69,29.93,29.76,15,5,0,0.00
2013-1-29,68.3,60.3,46.8,62.9,56.6,45.5,95,88,79,29.75,29.43,21,4,0,1.87
2013-1-30,47.0,33.7,24.2,45.7,29.9,20.4,95,86,76,30.09,29.47,16,4,0,0.01
2013-1-31,48.2,30.5,19.5,31.4,22.9,12.1,92,75,50,30.45,30.05,14,2,0,0.00
2013-2-1,45.3,27.1,12.7,21.2,13.2,8.1,84,58,35,30.50,30.20,10,1,0,0.00
2013-2-2,54.3,38.8,24.5,32.5,26.8,18.1,86,63,41,30.27,30.18,9,0,0,0.00
2013-2-3,53.4,44.4,35.6,30.9,26.8,21.6,77,52,31,30.28,29.96,11,0,0,0.00
2013-2-4,60.6,49.1,36.4,46.8,37.5,26.8,87,65,45,29.96,29.79,13,2,13,0.23
2013-2-5,65.8,45.4,29.2,49.6,34.1,27.1,95,69,32,30.05,29.90,12,1,12,0.00
2013-2-6,64.5,49.6,35.3,43.1,37.2,30.7,88,64,43,30.12,29.92,10,2,11,0.00
2013-2-7,56.4,51.0,43.3,53.4,47.9,39.7,98,89,80,30.07,29.84,14,2,14,0.11
2013-2-8,53.1,40.9,33.5,39.9,33.3,30.2,88,75,47,30.30,30.07,11,2,11,0.00
2013-2-9,48.7,39.9,33.4,43.1,34.0,29.7,94,81,49,30.22,29.83,10,2,11,0.12
2013-2-10,60.1,52.4,40.9,52.8,39.8,27.2,95,66,34,30.03,29.63,20,4,0,0.32
2013-2-11,54.8,40.2,28.9,29.6,25.9,22.5,84,59,32,30.19,30.03,8,0,0,0.00
2013-2-12,46.1,37.2,28.3,34.9,29.9,24.2,93,76,53,30.15,29.92,7,0,0,0.09
2013-2-13,51.2,40.0,33.4,38.9,33.5,31.4,95,79,49,30.03,29.92,11,1,0,0.10
2013-2-14,57.7,45.2,33.9,37.0,32.7,28.7,83,63,44,30.15,29.95,9,1,0,0.00
2013-2-15,43.4,35.4,23.9,31.0,22.4,14.6,80,60,35,30.34,30.15,10,2,0,0.00
2013-2-16,37.2,31.7,24.0,24.9,21.0,16.0,85,66,48,30.36,30.15,12,1,0,0.00
2013-2-17,63.2,47.4,30.1,34.7,27.3,17.2,65,47,32,30.14,29.79,14,2,0,0.00
2013-2-18,58.2,50.9,34.2,52.1,40.3,25.8,87,68,41,30.11,29.56,21,7,0,0.06
2013-2-19,46.6,34.6,24.2,25.5,21.1,17.5,80,59,38,30.33,30.11,15,2,0,0.00
2013-2-20,34.6,31.2,25.3,30.6,22.7,14.6,89,71,51,30.34,30.08,10,1,0,0.06
2013-2-21,36.6,32.8,28.8,36.5,30.4,25.1,100,91,83,30.10,29.70,14,2,0,0.38
2013-2-22,38.9,29.6,22.2,32.6,22.9,18.6,92,76,53,30.14,29.87,13,2,0,0.02
2013-2-23,45.6,30.3,18.4,26.3,21.7,16.0,92,72,45,30.14,29.97,7,0,0,0.00
2013-2-24,59.0,42.1,26.7,36.3,30.9,24.4,93,68,38,30.00,29.83,13,1,0,0.00
2013-2-25,41.7,38.5,33.0,38.9,33.2,29.0,93,82,63,29.86,29.42,10,1,10,0.34
2013-2-26,35.9,33.5,32.5,34.1,31.9,31.0,100,94,93,29.89,29.37,14,2,14,0.08
2013-2-27,39.7,34.3,32.4,32.7,30.1,27.1,93,85,72,30.09,29.87,20,3,20,0.06
2013-2-28,37.2,32.8,28.8,28.9,27.3,25.0,90,80,69,30.21,30.08,11,1,11,0.00
2013-3-1,33.5,30.1,26.9,26.6,23.4,20.5,86,76,66,30.29,30.17,13,2,13,0.00
2013-3-2,40.2,30.5,23.7,24.6,21.3,17.2,92,70,43,30.35,30.24,11,1,11,0.00
2013-3-3,58.4,41.8,23.1,33.7,27.3,19.1,87,59,36,30.23,29.76,11,2,11,0.00
2013-3-4,64.6,53.6,43.3,47.2,40.1,31.5,84,61,48,29.81,29.56,15,2,15,0.00
2013-3-5,45.1,38.6,31.2,35.1,27.2,20.8,92,65,44,30.33,29.82,18,5,18,0.08
2013-3-6,49.4,35.9,23.9,28.0,23.1,18.4,81,61,39,30.42,30.24,12,1,12,0.00
2013-3-7,63.3,48.5,34.9,31.9,28.0,24.6,73,48,23,30.26,30.12,10,1,10,0.00
2013-3-8,62.2,51.5,40.9,41.0,35.4,31.7,74,56,40,30.23,30.01,11,2,11,0.00
2013-3-9,68.7,58.7,52.2,57.0,46.9,36.7,95,66,47,30.01,29.64,14,3,14,1.37
2013-3-10,56.5,44.2,30.0,55.0,42.2,27.7,95,93,83,29.95,29.61,18,3,18,0.60
2013-3-11,45.2,34.2,28.2,30.1,25.6,21.6,92,73,42,30.06,29.92,14,2,14,0.01
2013-3-12,57.0,42.0,27.7,32.8,27.7,21.9,89,60,32,30.32,30.04,16,2,16,0.00
2013-3-13,51.7,38.4,26.2,23.9,21.2,16.8,82,53,27,30.48,30.32,9,0,9,0.00
2013-3-14,70.8,52.6,32.8,43.6,34.3,22.3,70,51,36,30.35,30.07,16,2,16,0.00
2013-3-15,78.3,64.2,46.3,50.0,46.1,41.4,85,54,32,30.07,29.72,12,3,12,0.00
2013-3-16,75.8,62.4,48.3,52.6,46.3,39.7,72,56,42,29.81,29.69,13,1,13,0.00
2013-3-17,48.4,43.7,41.0,42.5,40.3,38.2,95,88,71,29.86,29.66,12,1,12,0.13
2013-3-18,48.2,43.2,34.4,44.3,36.6,27.1,96,79,48,30.07,29.67,4,0,7,0.01
2013-3-19,56.2,43.2,29.7,31.5,25.9,18.4,88,55,25,30.26,30.03,12,1,0,0.00
2013-3-20,49.1,37.0,26.4,31.6,22.8,16.4,92,61,30,30.37,30.10,13,2,0,0.00
2013-3-21,43.8,34.6,30.0,32.6,24.4,11.7,93,70,29,30.10,29.82,11,2,0,0.20
2013-3-22,39.1,36.3,32.7,37.2,34.6,30.9,100,93,92,29.94,29.83,7,1,0,0.28
2013-3-23,40.8,38.4,36.4,39.2,37.0,34.8,100,95,94,29.92,29.71,6,1,0,0.02
2013-3-24,41.0,33.2,26.7,40.0,30.2,21.7,96,89,73,30.15,29.63,21,4,0,0.05
2013-3-25,34.4,29.1,24.0,25.3,22.4,19.0,84,76,63,30.37,30.12,19,3,0,0.00
2013-3-26,45.4,33.0,21.9,26.7,22.8,19.4,92,68,43,30.45,30.33,10,1,0,0.00
2013-3-27,59.1,44.0,26.6,32.2,27.3,22.1,90,57,27,30.33,30.13,12,1,0,0.00
2013-3-28,68.8,57.0,45.0,50.2,41.4,29.6,71,56,47,30.19,30.08,14,2,0,0.00
2013-3-29,68.3,58.4,51.5,56.1,52.0,48.1,94,80,57,30.17,30.05,8,0,0,0.37
2013-3-30,68.9,59.2,53.3,57.8,54.3,51.0,95,85,64,30.07,29.84,10,1,0,0.58
2013-3-31,69.3,56.8,44.6,54.0,46.2,37.6,96,72,34,29.96,29.81,11,1,0,0.07
2013-4-1,63.6,47.8,37.8,44.8,39.4,33.0,94,74,45,30.17,29.95,12,1,0,0.01
2013-4-2,41.5,37.6,35.5,37.2,35.2,32.6,94,91,73,30.28,30.16,7,0,0,0.44
2013-4-3,51.3,43.2,35.4,38.4,30.0,25.9,90,62,40,30.26,30.15,16,1,0,0.14
2013-4-4,57.8,46.4,38.0,40.1,36.3,32.0,93,71,41,30.15,30.05,9,0,0,0.02
2013-4-5,69.2,51.2,30.6,41.3,34.9,28.3,94,59,29,30.19,29.94,9,1,0,0.00
2013-4-6,73.1,63.1,55.4,49.7,44.9,36.2,67,52,40,29.94,29.75,19,4,0,0.00
2013-4-7,74.6,63.8,51.6,59.2,54.1,48.4,92,72,52,29.87,29.70,17,2,0,0.00
2013-4-8,70.4,65.1,60.4,60.8,58.2,54.7,92,79,68,29.76,29.66,13,2,0,0.12
2013-4-9,78.3,70.5,62.4,64.7,60.0,56.5,83,70,55,29.73,29.65,12,3,0,0.00
2013-4-10,73.5,49.1,37.1,64.5,46.1,35.5,95,90,69,29.88,29.65,17,2,0,0.52
2013-4-11,51.8,40.1,34.0,37.3,33.2,31.0,95,78,47,29.90,29.75,13,2,0,0.01
2013-4-12,57.5,44.7,33.6,38.5,33.3,29.2,89,66,43,30.02,29.81,13,1,0,0.00
2013-4-13,67.9,54.9,39.2,48.3,42.2,34.2,90,64,45,30.05,29.76,10,1,0,0.01
2013-4-14,77.5,67.6,54.3,54.1,49.3,45.7,73,53,38,29.77,29.48,18,3,0,0.00
2013-4-15,78.1,67.5,56.0,65.7,58.8,50.9,86,74,63,29.78,29.61,16,1,0,0.00
2013-4-16,78.7,61.7,51.9,64.6,56.0,49.4,93,82,60,29.95,29.77,9,0,0,0.00
2013-4-17,81.8,70.4,56.0,69.5,62.6,53.8,95,78,59,29.92,29.56,20,3,0,0.00
2013-4-18,75.2,49.6,38.2,65.9,45.4,30.1,95,86,70,30.00,29.48,17,3,0,3.61
2013-4-19,55.6,43.3,33.6,35.0,29.4,26.8,80,60,36,30.11,29.99,14,2,0,0.00
2013-4-20,67.7,50.3,34.0,41.3,36.2,31.6,94,63,31,30.19,30.08,7,0,0,0.00
2013-4-21,68.4,57.2,46.5,43.5,40.1,35.8,79,55,32,30.24,30.08,15,1,0,0.00
2013-4-22,71.4,58.8,44.5,47.0,42.4,37.7,84,57,36,30.16,29.87,11,1,0,0.00
2013-4-23,60.9,50.2,36.4,54.8,45.2,34.8,94,84,63,30.10,29.76,9,1,0,0.11
2013-4-24,55.8,43.0,34.5,35.1,31.6,24.6,94,68,32,30.33,30.10,11,1,0,0.01
2013-4-25,68.7,51.9,30.0,41.0,33.3,27.6,93,55,26,30.37,30.18,7,0,0,0.00
2013-4-26,58.2,51.7,47.3,49.4,45.3,36.4,96,81,44,30.28,30.09,7,0,9,0.72
2013-4-27,51.8,51.0,50.5,50.7,49.8,49.4,96,96,95,30.11,29.99,6,0,10,0.49
2013-4-28,76.1,60.1,49.7,55.0,51.1,48.2,97,76,38,30.02,29.83,6,0,10,0.00
2013-4-29,82.8,68.6,50.3,62.9,55.3,48.1,96,66,37,29.87,29.71,11,1,11,0.00
2013-4-30,80.5,72.6,61.0,56.8,51.7,45.6,80,50,31,29.82,29.73,10,2,10,0.00
2013-5-1,82.0,68.9,56.3,66.2,58.0,50.5,90,69,47,30.01,29.82,9,0,10,0.00
2013-5-2,63.1,48.1,33.7,58.0,44.9,32.2,94,89,81,30.27,29.99,13,2,13,0.35
2013-5-3,43.7,37.5,33.3,40.5,35.0,31.9,95,91,67,30.25,29.95,11,1,11,0.34
2013-5-4,44.1,39.2,34.7,39.8,36.4,32.9,95,90,81,30.01,29.85,7,0,10,0.18
2013-5-5,62.2,48.3,35.3,48.8,42.6,33.8,95,82,58,30.09,30.01,9,1,10,0.00
2013-5-6,63.5,54.0,47.3,54.3,49.6,45.1,94,86,70,30.08,29.99,9,0,10,0.00
2013-5-7,75.6,59.5,43.1,57.8,49.6,41.5,96,73,41,30.07,29.95,4,0,10,0.00
2013-5-8,78.7,64.9,51.7,62.1,55.5,49.8,95,74,45,30.03,29.85,7,0,10,0.00
2013-5-9,76.1,64.6,58.7,63.4,59.2,56.2,95,84,59,29.94,29.83,10,1,10,1.75
2013-5-10,69.2,62.7,52.9,62.6,57.6,50.3,97,84,68,30.04,29.90,9,1,0,0.01
2013-5-11,73.0,58.3,45.9,57.1,47.9,37.4,96,71,38,30.18,30.02,10,1,0,0.00
2013-5-12,67.8,52.7,36.5,51.0,40.0,33.0,95,67,30,30.26,30.13,13,0,0,0.00
2013-5-13,79.8,63.8,45.9,58.8,50.8,43.7,94,66,41,30.15,29.99,11,1,0,0.00
2013-5-14,85.7,73.8,61.6,61.0,54.9,50.5,68,53,32,30.01,29.89,12,1,0,0.00
2013-5-15,74.7,68.2,64.3,66.6,60.3,51.4,95,77,55,29.94,29.81,13,1,0,0.30
2013-5-16,69.1,64.2,59.9,64.6,61.8,58.5,96,92,84,29.84,29.78,4,0,0,0.01
2013-5-17,80.6,68.2,57.1,66.6,62.3,55.7,97,83,57,29.89,29.81,5,0,0,0.00
2013-5-18,82.4,73.4,62.9,74.2,68.7,61.5,96,86,73,29.87,29.73,13,0,0,0.00
2013-5-19,86.8,78.0,70.6,70.2,66.5,61.7,93,70,45,29.77,29.57,12,2,0,0.06
2013-5-20,77.2,71.9,65.2,70.2,66.4,60.7,94,83,72,29.76,29.64,15,1,0,0.03
2013-5-21,62.4,61.6,60.8,60.3,59.8,59.1,95,94,93,29.85,29.72,4,0,14,0.17
2013-5-22,74.5,66.0,54.5,61.6,58.1,53.4,97,77,57,29.91,29.78,9,1,0,0.00
2013-5-23,74.0,63.0,53.3,63.2,57.6,51.6,96,83,62,30.11,29.91,3,0,0,0.00
2013-5-24,76.6,64.7,56.2,63.6,56.8,52.5,91,76,60,30.25,30.11,5,0,0,0.00
2013-5-25,82.7,69.2,56.8,67.6,59.5,51.4,89,72,56,30.19,30.00,10,1,0,0.00
2013-5-26,80.5,71.7,61.6,68.2,63.7,59.8,95,77,58,30.07,29.92,14,1,0,0.00
2013-5-27,81.8,74.3,67.7,69.3,66.0,60.1,91,76,58,29.93,29.74,18,2,0,0.00
2013-5-28,81.4,75.1,71.0,67.3,65.2,62.0,83,72,59,29.82,29.70,20,3,0,0.01
2013-5-29,79.0,73.8,68.0,68.1,65.3,63.4,87,75,66,29.83,29.68,13,1,0,0.00
2013-5-30,78.7,70.0,62.5,69.8,64.8,59.9,95,84,65,29.81,29.67,14,1,0,0.62
2013-5-31,83.6,73.7,62.5,73.8,68.7,60.8,95,85,68,29.76,29.65,9,0,3,0.01
2013-6-1,77.4,68.5,58.6,71.8,63.7,55.7,96,85,65,29.95,29.58,18,0,18,0.49
2013-6-2,66.8,59.7,52.5,59.5,55.4,50.5,96,86,71,30.02,29.93,0,0,3,0.00
2013-6-3,77.4,63.0,46.0,62.1,55.7,44.4,96,79,52,30.04,29.86,0,0,3,0.00
2013-6-4,76.8,66.8,61.0,67.9,62.2,58.0,93,85,70,29.95,29.84,0,0,0,0.00
2013-6-5,77.9,67.9,60.8,70.0,63.7,59.2,95,87,69,29.98,29.80,0,0,0,0.23
2013-6-6,72.7,64.4,56.3,65.3,60.1,53.7,96,86,67,29.91,29.84,0,0,0,0.00
2013-6-7,76.2,61.8,50.1,60.5,54.6,48.2,95,79,50,29.95,29.86,0,0,0,0.00
2013-6-8,79.4,65.5,50.7,64.3,56.7,48.6,96,76,52,29.92,29.79,0,0,0,0.00
2013-6-9,81.5,70.9,62.5,68.4,62.0,58.6,94,75,49,29.84,29.78,9,0,0,0.04
2013-6-10,89.3,76.7,63.9,72.7,66.1,58.9,87,71,44,29.87,29.79,10,1,0,0.00
2013-6-11,90.1,81.2,72.4,72.0,68.6,65.4,82,67,45,29.93,29.83,11,1,0,0.00
2013-6-12,88.1,80.8,74.1,72.5,70.3,67.2,85,71,52,29.91,29.81,19,2,0,0.00
2013-6-13,88.0,77.2,68.2,73.4,69.0,64.8,94,77,49,29.95,29.86,6,0,0,0.00
2013-6-14,88.7,77.2,66.1,77.5,70.7,63.7,94,81,65,29.97,29.84,5,0,0,0.00
2013-6-15,87.3,75.5,69.0,75.4,69.2,65.2,94,82,63,29.98,29.87,12,0,0,0.17
2013-6-16,85.9,75.4,67.5,77.1,69.8,64.0,96,84,66,29.95,29.83,8,0,0,0.01
2013-6-17,72.2,68.4,65.1,69.5,66.3,63.3,95,93,88,29.93,29.82,4,0,0,0.17
2013-6-18,82.7,71.0,61.8,71.3,65.0,60.4,96,83,56,29.98,29.90,3,0,0,0.00
2013-6-19,84.6,72.6,60.5,70.6,64.5,58.8,96,78,54,30.00,29.91,5,0,0,0.00
2013-6-20,87.7,76.1,63.5,74.2,68.2,61.4,94,78,59,30.01,29.92,6,1,0,0.00
2013-6-21,89.7,80.7,72.2,75.0,71.5,68.9,90,75,54,30.00,29.92,11,1,0,0.00
2013-6-22,87.1,79.4,72.5,74.5,70.6,68.5,89,76,57,29.99,29.86,8,1,0,0.00
2013-6-23,88.4,79.0,68.8,73.8,70.1,66.6,94,75,54,29.94,29.84,11,1,0,0.00
2013-6-24,87.7,79.6,71.2,73.7,70.1,67.1,87,73,56,29.98,29.86,10,1,0,0.00
2013-6-25,86.9,80.2,75.3,72.2,69.8,67.4,84,71,54,29.90,29.76,11,2,0,0.00
2013-6-26,91.8,81.1,73.4,78.3,72.5,69.6,92,76,59,29.86,29.75,13,1,0,0.00
2013-6-27,95.8,85.9,70.6,78.9,74.3,68.5,95,70,50,29.90,29.78,7,0,0,0.00
2013-6-28,89.4,80.6,67.9,75.7,69.4,60.4,90,70,45,29.86,29.74,9,1,0,0.00
2013-6-29,85.2,72.3,59.5,64.6,58.3,54.7,92,65,38,29.83,29.74,13,2,0,0.00
2013-6-30,77.6,67.2,58.6,63.4,59.3,55.1,92,77,56,29.92,29.78,11,1,0,0.00
2013-7-1,80.6,67.0,56.2,63.0,56.2,51.8,94,71,40,30.00,29.92,10,1,0,0.00
2013-7-2,80.8,65.4,51.4,59.8,53.6,48.8,94,69,37,30.05,29.98,7,0,0,0.00
2013-7-3,83.2,67.7,52.2,62.0,54.5,49.3,94,67,35,30.07,29.95,5,0,0,0.00
2013-7-4,85.2,70.1,56.0,66.5,58.2,53.4,92,69,39,30.02,29.91,4,0,0,0.00
2013-7-5,88.8,74.3,58.9,64.8,59.9,55.8,92,64,36,29.99,29.86,5,0,0,0.00
2013-7-6,88.2,73.0,63.1,69.7,62.2,58.8,89,71,41,29.97,29.88,3,0,0,0.00
2013-7-7,89.8,77.3,67.2,69.6,65.2,60.4,91,69,39,29.99,29.92,5,0,0,0.00
2013-7-8,91.5,78.2,67.6,72.2,67.6,64.4,92,72,46,30.03,29.94,9,0,0,0.00
2013-7-9,93.1,82.3,72.1,71.9,69.8,67.7,88,68,47,30.02,29.88,9,1,0,0.00
2013-7-10,98.3,84.3,71.0,72.9,69.7,65.9,86,64,40,29.95,29.81,5,0,0,0.00
2013-7-11,94.8,79.1,69.5,75.2,68.6,61.0,93,73,41,29.94,29.85,7,0,0,0.00
2013-7-12,91.8,77.4,67.8,70.8,64.7,59.7,83,66,45,29.99,29.90,5,0,0,0.00
2013-7-13,87.6,74.1,60.1,65.6,60.8,56.5,90,66,41,30.00,29.89,5,0,0,0.00
2013-7-14,87.1,75.1,62.1,64.3,59.9,55.1,90,62,34,30.00,29.90,5,0,0,0.00
2013-7-15,90.3,77.0,68.1,69.5,66.1,62.8,91,71,43,30.11,29.98,5,0,0,0.00
2013-7-16,86.7,75.3,67.2,72.9,69.1,64.9,94,82,56,30.20,30.10,5,0,0,0.01
2013-7-17,92.6,79.0,66.5,73.2,67.6,64.4,95,71,42,30.26,30.11,6,0,0,0.00
2013-7-18,93.7,79.9,67.0,72.6,68.2,64.3,94,70,43,30.15,29.95,6,0,0,0.00
2013-7-19,95.0,79.2,68.6,72.5,68.4,65.1,91,71,42,29.98,29.86,6,0,0,0.00
2013-7-20,93.3,76.7,68.1,72.9,68.6,65.2,93,78,47,29.91,29.75,12,1,0,0.50
2013-7-21,81.3,73.3,68.1,76.7,70.8,66.0,94,92,82,29.90,29.77,5,0,0,0.18
2013-7-22,86.3,73.8,66.1,75.8,68.8,63.1,94,85,66,29.93,29.77,5,0,0,1.36
2013-7-23,94.5,82.7,69.3,78.9,73.7,66.0,93,75,55,29.85,29.71,7,0,0,1.02
2013-7-24,85.1,74.7,67.0,73.6,69.2,64.9,94,84,65,29.96,29.79,7,1,0,0.47
2013-7-25,84.6,74.5,64.6,72.6,68.3,62.5,94,82,60,30.03,29.96,2,0,0,0.00
2013-7-26,72.4,70.7,65.5,70.0,68.1,63.5,94,91,86,30.00,29.93,7,0,0,0.72
2013-7-27,68.0,65.4,63.0,65.9,63.7,61.2,95,94,93,30.01,29.96,3,0,0,0.00
2013-7-29,84.3,78.3,68.3,74.2,71.3,65.4,92,80,68,30.01,29.91,10,1,0,0.00
2013-7-30,86.3,76.8,70.1,76.2,72.2,68.0,94,86,68,29.99,29.92,6,0,0,2.05
2013-7-31,86.1,78.4,70.6,76.7,72.9,68.1,94,84,67,29.99,29.92,9,0,0,0.00
2013-8-1,86.2,74.3,63.9,73.1,67.8,61.8,95,82,57,30.04,29.92,3,0,0,0.00
2013-8-2,85.7,77.4,69.9,77.7,72.4,67.2,93,85,74,29.93,29.81,7,0,0,0.00
2013-8-3,85.4,76.7,67.7,78.5,72.6,65.6,94,87,70,30.05,29.81,13,0,0,3.10
2013-8-4,74.8,73.4,71.7,72.9,71.1,69.1,94,93,89,30.07,29.94,4,0,0,0.15
2013-8-5,90.4,79.0,71.3,79.7,74.0,68.6,94,85,66,29.98,29.77,8,0,0,0.02
2013-8-6,90.5,80.9,72.2,81.2,75.0,69.1,93,83,66,29.85,29.73,6,0,0,0.09
2013-8-7,88.4,79.7,73.1,81.8,74.9,70.6,93,86,71,29.89,29.73,5,0,0,0.18
2013-8-8,81.6,73.6,67.3,76.4,70.5,65.5,95,90,75,29.94,29.77,22,0,0,3.22
2013-8-9,82.6,74.5,70.1,74.8,70.7,68.0,94,88,72,29.98,29.84,4,0,0,0.07
2013-8-10,83.0,74.6,69.0,74.3,70.1,67.2,94,86,73,30.05,29.97,5,0,0,0.00
2013-8-11,86.5,76.0,69.0,76.6,71.7,66.9,94,87,65,30.04,29.95,3,0,0,0.00
2013-8-12,81.3,73.1,70.5,73.4,70.1,68.4,93,90,73,30.02,29.88,2,0,0,0.00
2013-8-13,76.6,71.5,65.2,73.7,69.3,63.1,94,93,86,30.01,29.92,3,0,0,0.06
2013-8-14,77.6,67.5,59.0,66.2,61.9,56.4,96,83,60,30.10,30.01,7,0,0,0.00
2013-8-15,77.0,63.7,53.9,63.4,57.3,51.9,94,81,51,30.11,29.99,2,0,0,0.00
2013-8-16,76.6,65.7,59.0,64.4,59.8,56.4,94,82,61,30.09,29.99,4,0,0,0.00
2013-8-17,78.0,65.2,53.6,66.4,59.5,51.6,94,83,60,30.12,30.02,3,0,0,0.00
2013-8-18,81.7,69.1,57.6,68.1,62.1,55.6,94,80,48,30.10,30.01,2,0,0,0.00
2013-8-19,83.7,71.0,60.8,69.2,63.6,58.8,94,79,49,30.08,29.96,4,0,0,0.00
2013-8-20,84.7,72.0,60.9,70.8,65.1,58.9,94,80,53,30.05,29.96,3,0,0,0.00
2013-8-21,89.4,74.6,62.0,74.3,66.9,60.0,93,79,49,30.07,29.99,11,0,0,0.00
2013-8-22,89.2,76.1,64.5,75.9,69.1,62.4,93,80,51,30.07,29.96,3,0,0,0.00
2013-8-23,89.0,76.4,64.8,74.5,69.0,62.7,94,80,49,30.03,29.94,1,0,0,0.00
2013-8-24,88.6,77.1,67.9,74.9,70.4,65.8,93,81,56,30.09,29.98,4,0,0,0.00
2013-8-25,89.9,78.4,67.9,76.0,71.0,65.5,93,80,51,30.16,30.06,4,0,0,0.00
2013-8-26,89.1,77.3,68.8,77.4,70.6,66.7,93,81,59,30.15,30.03,4,0,0,0.00
2013-8-27,88.6,75.5,64.8,72.7,67.3,62.7,93,78,51,30.08,29.97,4,0,0,0.00
2013-8-28,90.1,77.2,65.3,75.3,69.3,63.2,93,78,52,30.03,29.95,5,0,0,0.00
2013-8-29,92.8,79.1,68.3,77.0,71.0,65.9,93,78,50,30.02,29.92,4,0,0,0.00
2013-8-30,93.2,80.1,70.0,76.3,71.4,67.8,93,77,49,29.96,29.81,5,0,0,0.00
2013-8-31,95.5,80.1,69.1,79.0,71.1,66.8,93,76,45,29.86,29.74,7,0,0,0.00
2013-9-1,87.0,76.2,71.1,75.6,70.5,68.0,91,83,57,29.85,29.73,6,0,0,0.01
2013-9-2,84.5,73.4,63.4,68.8,65.7,60.3,92,78,54,29.94,29.83,5,0,0,0.00
2013-9-3,85.8,69.8,56.8,67.3,60.8,54.5,93,76,43,30.02,29.94,3,0,0,0.00
2013-9-4,86.2,70.2,57.0,67.1,61.2,54.7,93,76,44,30.11,30.00,6,0,0,0.00
2013-9-5,86.3,70.7,58.7,67.9,61.9,56.4,92,76,43,30.15,30.05,2,0,0,0.00
2013-9-6,87.6,72.1,58.6,69.4,63.2,56.3,93,76,48,30.10,29.96,3,0,0,0.00
2013-9-7,67.0,66.3,65.9,63.3,62.7,62.5,89,88,88,29.98,29.97,0,0,0,0.00
2013-9-8,87.9,77.4,71.1,74.7,70.4,66.6,86,79,64,29.88,29.83,0,0,0,0.00
2013-9-9,92.1,78.0,65.4,73.6,66.3,61.9,89,70,41,29.95,29.86,10,0,0,0.00
2013-9-10,92.8,76.7,63.5,70.2,65.0,59.6,89,70,35,30.08,29.93,5,0,0,0.00
2013-9-11,90.4,77.1,66.2,74.0,68.2,62.9,89,76,47,30.10,29.99,3,0,0,0.00
2013-9-12,90.2,76.0,65.6,73.4,67.8,62.3,90,77,52,30.06,29.93,11,0,0,0.00
2013-9-13,82.5,69.8,55.1,66.6,57.6,51.0,87,68,39,30.04,29.93,5,0,0,0.00
2013-9-14,78.7,63.2,50.0,60.0,53.2,47.2,90,73,41,30.06,29.95,5,0,0,0.00
2013-9-15,86.8,71.3,56.6,71.4,60.1,52.2,87,69,47,30.02,29.94,6,0,0,0.00
2013-9-16,75.6,70.1,66.0,70.7,66.0,62.0,89,87,82,30.14,29.99,2,0,0,0.07
2013-9-17,78.4,69.6,65.8,69.0,65.0,62.5,89,85,70,30.09,30.05,4,0,0,0.00
2013-9-18,86.7,78.6,68.1,71.3,68.0,63.8,87,71,54,29.98,29.87,6,0,0,0.00
2013-9-19,89.6,77.2,67.9,70.2,67.7,63.9,88,74,50,29.93,29.81,12,0,0,0.17
2013-9-20,71.7,65.4,55.1,68.0,61.5,51.9,90,87,75,29.94,29.85,9,0,0,1.61
2013-9-21,74.8,58.8,45.8,56.7,50.4,43.0,92,76,44,30.00,29.90,7,0,0,0.00
2013-9-22,76.1,58.8,45.5,56.5,49.8,42.7,90,75,43,29.97,29.84,5,0,0,0.01
2013-9-23,78.7,62.5,47.9,58.5,52.9,45.1,94,73,45,29.91,29.76,4,0,0,0.00
2013-9-24,77.2,65.8,55.9,61.7,57.6,52.7,90,76,54,29.85,29.79,6,0,0,0.00
2013-9-25,80.2,64.9,52.3,64.9,57.9,49.5,90,80,54,29.85,29.77,4,0,0,0.00
2013-9-26,84.4,68.4,56.3,65.3,59.7,53.4,90,76,45,29.91,29.80,3,0,0,0.00
2013-9-27,83.1,70.5,60.1,66.4,61.2,56.8,90,74,50,29.97,29.86,6,0,0,0.00
2013-9-28,80.3,69.1,61.0,68.8,63.0,58.0,90,81,67,30.00,29.84,12,0,0,1.17
2013-9-29,76.0,62.9,54.0,61.0,56.5,51.1,92,81,53,30.04,29.90,4,0,0,0.02
2013-9-30,79.5,66.7,55.6,66.6,60.6,52.4,92,82,59,29.91,29.80,5,0,0,0.00
2013-10-1,83.9,72.3,62.9,70.0,65.7,59.9,90,81,59,29.94,29.83,7,0,0,0.00
2013-10-2,81.8,71.5,64.3,71.9,66.2,61.3,90,84,66,29.97,29.85,10,0,0,0.01
2013-10-3,83.6,73.1,65.4,71.2,66.6,62.4,90,81,64,29.89,29.78,13,1,0,0.00
2013-10-4,82.9,74.0,66.8,71.8,67.1,62.8,89,79,63,29.87,29.79,11,1,0,0.00
2013-10-5,71.3,56.9,46.7,67.9,53.9,43.9,90,89,87,30.03,29.82,11,0,0,1.36
2013-10-6,62.2,51.9,42.8,48.0,44.9,40.2,91,78,58,30.01,29.95,11,0,0,0.01
2013-10-7,70.7,54.2,40.4,53.2,45.7,37.7,92,76,45,30.13,29.99,5,0,0,0.00
2013-10-8,72.3,56.5,44.6,54.7,48.0,41.6,90,76,44,30.15,30.02,9,0,0,0.00
2013-10-9,75.2,57.9,44.2,56.9,49.4,41.5,90,76,44,30.10,30.01,3,0,0,0.00
2013-10-10,76.4,60.7,47.6,60.5,53.1,44.7,90,78,52,30.08,29.89,7,0,0,0.00
2013-10-11,75.6,64.3,52.8,65.6,59.1,49.8,92,84,70,29.91,29.82,14,1,0,0.00
2013-10-12,68.3,64.2,57.9,64.4,60.4,54.7,89,88,83,30.13,29.84,8,0,0,0.33
2013-10-13,71.5,61.1,54.6,58.3,53.0,48.8,89,75,55,30.29,30.14,6,0,0,0.00
2013-10-14,66.9,60.3,54.7,62.2,55.2,49.4,89,83,70,30.23,29.94,6,0,0,0.16
2013-10-15,65.0,58.9,51.2,61.7,55.6,48.1,90,89,85,30.04,29.84,6,0,0,0.08
2013-10-16,61.5,51.2,40.7,48.3,44.6,38.0,90,79,57,30.11,29.98,9,0,0,0.00
2013-10-17,63.7,50.4,41.1,48.8,44.0,38.4,90,80,54,30.06,29.96,4,0,0,0.01
2013-10-18,60.4,48.0,37.6,52.0,43.5,34.9,92,85,68,30.07,29.95,7,0,0,0.15
2013-10-19,59.0,45.2,35.7,42.5,38.4,33.1,94,79,47,30.15,30.02,13,0,0,0.05
2013-10-20,67.1,52.2,40.3,47.8,42.0,37.2,89,71,38,30.03,29.86,13,0,0,0.00
2013-10-21,54.9,47.4,36.9,49.7,42.8,34.0,90,84,69,30.11,29.92,8,0,0,0.00
2013-10-22,66.2,49.3,34.4,49.1,40.3,31.8,90,73,49,30.11,29.93,15,1,0,0.01
2013-10-23,62.7,46.0,34.1,44.4,37.9,31.2,92,76,41,30.19,30.01,3,0,0,0.00
2013-10-24,54.7,43.2,32.6,39.4,35.7,28.9,90,77,46,30.42,30.08,13,1,0,0.00
2013-10-25,59.0,43.5,30.6,37.0,31.4,27.8,92,66,34,30.50,30.21,9,0,0,0.00
2013-10-26,63.7,54.0,44.2,54.8,46.7,34.0,88,77,68,30.21,30.07,10,0,0,0.00
2013-10-27,65.6,49.6,39.8,51.4,42.1,35.8,90,78,35,30.09,29.97,2,0,0,0.00
2013-10-28,67.6,58.0,48.2,56.1,52.1,45.1,90,82,61,30.15,30.00,8,0,0,0.00
2013-10-29,69.5,64.0,57.3,63.9,60.0,53.8,89,87,82,30.08,29.93,13,1,0,0.10
2013-10-30,66.9,64.8,61.5,63.2,61.3,58.2,90,88,87,29.99,29.73,6,0,0,1.66
2013-10-31,71.7,60.4,49.0,63.7,55.7,45.6,90,85,46,29.74,29.43,13,1,0,0.26
2013-11-1,67.5,53.3,42.6,48.7,43.2,39.9,90,72,38,29.98,29.74,11,0,0,0.01
2013-11-2,56.9,46.1,34.7,41.7,38.2,31.8,89,75,50,30.23,29.98,10,1,0,0.00
2013-11-3,61.7,47.4,32.4,42.5,37.5,29.5,90,71,46,30.23,30.00,10,1,0,0.00
2013-11-4,58.3,54.4,50.7,51.3,47.0,41.8,87,76,68,30.13,29.98,12,2,0,0.00
2013-11-5,62.4,57.9,53.9,59.1,54.6,50.5,92,89,88,30.12,29.91,7,1,0,0.44
2013-11-6,62.3,44.8,31.8,59.0,41.5,29.2,95,88,80,30.38,29.84,10,1,0,0.28
2013-11-7,61.6,43.0,28.2,42.8,34.2,25.6,92,74,39,30.46,30.34,9,0,0,0.00
2013-11-8,63.5,49.7,34.6,42.4,37.5,31.7,90,66,35,30.35,30.07,16,2,0,0.00
2013-11-9,64.1,52.9,41.9,46.9,42.7,37.9,87,69,49,30.26,30.08,9,0,0,0.00
2013-11-10,66.1,53.6,43.3,46.5,42.8,40.0,89,70,42,30.36,30.24,7,0,0,0.00
2013-11-11,66.2,53.7,42.0,53.7,46.7,38.4,87,78,60,30.38,30.15,13,1,0,0.00
2013-11-12,42.0,32.8,21.9,38.4,22.5,17.0,87,67,41,30.75,30.40,13,2,0,0.00
2013-11-13,49.6,33.8,19.0,24.4,20.4,16.0,89,61,32,30.73,30.33,10,1,0,0.00
2013-11-14,53.0,40.8,23.9,34.7,24.6,19.5,86,55,32,30.33,30.02,13,2,0,0.00
2013-11-15,58.7,49.8,42.9,48.9,42.8,33.9,88,77,63,30.03,29.84,12,2,0,0.05
2013-11-16,69.8,63.3,52.3,63.6,57.6,48.8,88,82,69,29.83,29.56,16,5,0,0.00
2013-11-17,72.4,65.8,51.6,64.8,45.8,24.2,84,53,27,30.04,29.49,18,4,0,0.00
2013-11-18,63.5,48.9,35.3,39.5,29.8,23.5,87,51,23,30.26,30.03,10,1,0,0.00
2013-11-19,59.4,49.5,37.8,33.6,28.0,19.0,72,46,29,30.25,30.03,9,2,0,0.00
2013-11-20,60.8,52.8,43.8,39.9,27.7,14.5,56,39,24,30.04,29.87,12,2,0,0.01
2013-11-21,56.9,50.5,42.8,48.4,46.4,40.1,92,86,55,30.25,29.94,14,1,0,0.62
2013-11-22,42.5,32.9,31.2,39.8,30.3,28.6,90,90,89,30.54,30.26,13,3,0,0.00
2013-11-23,38.4,32.1,23.5,29.0,23.3,14.3,90,71,47,30.69,30.53,13,3,0,0.00
2013-11-24,31.3,25.7,18.8,18.2,15.4,12.8,79,65,52,30.72,30.37,6,1,0,0.00
2013-11-25,36.2,33.5,30.5,30.6,25.3,15.9,87,73,49,30.36,30.18,6,0,0,0.00
2013-11-26,45.7,34.9,26.4,32.6,27.3,17.9,87,74,50,30.34,30.12,24,3,0,0.00
2013-11-27,37.1,26.6,17.9,18.0,14.1,11.8,79,60,38,30.46,30.33,9,1,0,0.00
2013-11-28,52.8,36.7,22.8,30.8,23.2,14.8,83,59,41,30.45,30.29,12,1,0,0.00
2013-11-29,54.6,38.6,25.0,33.6,26.1,20.9,89,64,31,30.52,30.31,10,1,0,0.00
2013-11-30,56.4,45.2,32.9,44.3,37.0,25.7,88,73,61,30.33,30.11,13,2,0,0.00
2013-12-1,55.0,48.6,40.8,50.6,45.0,37.8,89,88,85,30.11,29.86,4,0,0,0.00
2013-12-2,63.5,48.5,39.1,51.9,43.2,36.1,90,83,58,29.86,29.63,6,0,0,0.00
2013-12-3,68.1,51.5,36.9,52.9,44.9,34.1,90,80,45,29.65,29.49,9,1,0,0.00
2013-12-4,61.2,46.5,32.6,51.4,41.5,29.5,89,83,61,29.94,29.51,14,1,0,0.01
2013-12-5,32.6,24.7,20.3,29.5,20.3,16.7,89,83,68,30.31,29.94,12,2,0,0.00
2013-12-6,20.2,18.3,14.2,18.5,14.8,8.9,96,86,76,30.60,30.27,15,3,0,0.00
2013-12-7,24.6,17.1,1.2,14.1,9.1,-2.5,85,71,53,30.69,30.33,5,1,0,0.04
2013-12-8,28.8,25.6,21.8,26.0,22.0,13.2,89,86,68,30.34,30.03,7,1,0,0.00
2013-12-9,27.5,24.0,20.7,24.7,18.8,14.9,89,80,67,30.37,30.20,13,2,0,0.00
2013-12-10,33.2,22.9,14.3,20.1,15.7,11.2,89,75,53,30.47,30.30,6,1,0,0.02
2013-12-11,37.7,24.0,13.0,26.0,17.6,10.1,89,77,59,30.66,30.30,9,1,0,0.12
2013-12-12,41.0,26.1,11.5,24.0,16.8,8.0,89,70,45,30.64,30.29,11,1,0,0.12
2013-12-13,36.6,33.8,25.1,33.7,29.5,20.0,89,84,71,30.28,29.84,7,1,0,0.55
2013-12-14,36.2,31.9,24.9,33.3,29.0,22.1,90,89,87,30.26,29.83,13,2,0,0.29
2013-12-15,48.6,34.3,20.4,35.5,27.8,17.9,90,78,58,30.29,30.12,11,1,0,0.01
2013-12-16,61.4,46.7,37.8,38.3,34.0,31.5,80,63,39,30.14,30.03,14,1,0,0.00
2013-12-17,59.0,43.0,30.4,39.7,32.3,26.1,88,69,38,30.32,30.11,11,1,0,0.00
2013-12-18,61.8,46.3,30.0,40.7,34.0,26.1,92,65,40,30.27,29.92,12,2,0,0.00
2013-12-19,61.5,56.3,52.4,56.3,49.2,40.3,84,77,61,29.92,29.67,19,5,0,0.00
2013-12-20,62.9,44.7,32.5,58.0,41.1,29.9,90,87,78,29.88,29.66,11,2,0,0.11
2013-12-21,39.4,35.8,32.3,36.7,33.1,29.7,90,90,90,29.81,29.49,13,0,0,0.94
2013-12-22,34.4,29.7,25.7,31.8,26.8,22.4,90,89,85,30.38,29.72,12,2,0,0.00
2013-12-23,30.0,23.7,16.1,23.0,19.9,13.3,89,85,72,30.62,30.38,9,1,0,0.00
2013-12-24,42.3,28.2,15.8,29.7,21.7,13.1,90,77,57,30.61,30.28,9,2,0,0.01
2013-12-25,44.0,32.3,23.1,34.9,27.7,20.4,89,83,69,30.42,30.27,10,0,0,0.00
2013-12-26,51.3,34.5,19.9,34.6,25.9,17.2,90,73,43,30.44,30.31,12,1,0,0.00
2013-12-27,56.9,38.8,26.3,36.7,29.3,23.5,89,71,40,30.43,30.30,12,1,0,0.00
2013-12-28,54.8,40.7,25.8,38.8,30.0,22.7,95,68,40,30.30,29.92,12,1,0,0.00
2013-12-29,41.5,30.0,20.7,37.7,25.0,15.0,87,81,77,30.30,29.92,12,2,0,0.00
2013-12-30,38.1,25.5,13.8,24.9,18.7,10.1,92,76,56,30.39,30.23,9,1,0,0.00
2013-12-31,55.0,34.9,19.1,31.8,23.6,16.4,89,67,36,30.42,30.15,13,1,0,0.00
2014-1-1,55.3,40.6,23.3,37.2,28.2,19.5,86,62,40,30.15,29.86,14,2,0,0.00
2014-1-2,26.9,18.0,11.3,19.2,11.0,7.2,87,74,57,30.52,30.15,12,2,0,0.00